This is the latest recevied weather packets stored in our database for station/object VK3HUG-13. If no packets are shown the sender has not sent any weather packets the latest 10 day(s).
| Time | Temp. | Humidity | Pressure | Rain* | Wind** | Luminosity | Snow |
|---|---|---|---|---|---|---|---|
| 1787629507 | 12.22° C | 99% | 1015.2 hPa | 0 mm | - | - | - |
| 1787628608 | 11.67° C | 99% | 1016.3 hPa | 0 mm | - | - | - |
| 1787627707 | 11.67° C | 99% | 1016.3 hPa | 0 mm | - | - | - |
| 1787626807 | 11.67° C | 100% | 1016.3 hPa | 0 mm | - | - | - |
| 1787625907 | 12.22° C | 100% | 1016.2 hPa | 0 mm | - | - | - |
| 1787625007 | 11.67° C | 100% | 1016.3 hPa | 0 mm | - | - | - |
| 1787624107 | 11.67° C | 100% | 1016.3 hPa | 0 mm | - | - | - |
| 1787623207 | 11.67° C | 100% | 1016.3 hPa | 0.76 mm | - | - | - |
| 1787622307 | 11.11° C | 100% | 1016.4 hPa | 1.52 mm | - | - | - |
| 1787621407 | 11.11° C | 100% | 1016.4 hPa | 1.52 mm | - | - | - |
| 1787620508 | 11.11° C | 100% | 1017.5 hPa | 1.52 mm | - | - | - |
| 1787619608 | 11.11° C | 100% | 1017.4 hPa | 0.76 mm | - | - | - |
| 1787618707 | 11.11° C | 100% | 1016.4 hPa | 0 mm | - | - | - |
| 1787616906 | 11.67° C | 100% | 1016.3 hPa | 0 mm | - | - | - |
| 1787616006 | 11.11° C | 100% | 1016.4 hPa | 0 mm | - | - | - |
| 1787615107 | 11.11° C | 100% | 1016.4 hPa | 0 mm | - | - | - |
| 1787614206 | 11.11° C | 100% | 1016.4 hPa | 0 mm | - | - | - |
| 1787613307 | 11.11° C | 100% | 1016.4 hPa | 0 mm | - | - | - |
| 1787612407 | 10.56° C | 100% | 1016.5 hPa | 0 mm | - | - | - |
| 1787611506 | 10° C | 1% | 1016.5 hPa | 0 mm | - | - | - |
| 1787610606 | 10° C | 1% | 1016.5 hPa | 0 mm | - | - | - |
| 1787609707 | 10° C | 100% | 1016.6 hPa | 0 mm | - | - | - |
| 1787608807 | 9.44° C | 100% | 1016.6 hPa | 0 mm | - | - | - |
| 1787607906 | 9.44° C | 1% | 1016.6 hPa | 0 mm | - | - | - |
| 1787607007 | 9.44° C | 100% | 1016.6 hPa | 0 mm | - | - | - |
* Rain latest hour (hover to see other rain measurements)
** Current wind speed in m/s (hover to see current wind gust speed)